Overview Statistics Trail Chart Weather Telemetry Raw packets
 

This is the latest recevied weather packets stored in our database for station/object EA8BQU-10. If no packets are shown the sender has not sent any weather packets the latest 10 day(s).

<< 34 35 36 37 38 39 40 >>
Time Temp. Humidity Pressure Rain* Wind** Luminosity Snow
1787903450 23.33° C 100% 1020.5 hPa - - - -
1787902550 23.33° C 100% 1020.4 hPa - - - -
1787901650 22.78° C 100% 1020.3 hPa - - - -
1787900750 22.78° C 100% 1020 hPa - - - -
1787899889 22.78° C 100% 1020 hPa - - - -
1787899850 22.78° C 100% 1020 hPa - - - -
1787898990 22.78° C 100% 1019.8 hPa - - - -
1787898949 22.78° C 100% 1019.8 hPa - - - -
1787898048 22.22° C 100% 1019.8 hPa - - - -
1787897148 22.78° C 100% 1019.7 hPa - - - -
1787896247 22.78° C 100% 1019.8 hPa - - - -
1787895348 23.33° C 100% 1019.8 hPa - - - -
1787894446 22.22° C 100% 1019.7 hPa - - - -
1787893551 22.22° C 100% 1019.7 hPa - - - -
1787892650 22.78° C 100% 1019.6 hPa - - - -
1787891750 22.78° C 100% 1019.6 hPa - - - -
1787890849 22.78° C 100% 1019.5 hPa - - - -
1787889949 22.78° C 100% 1019.4 hPa - - - -
1787889049 22.78° C 100% 1019.5 hPa - - - -
1787888149 22.22° C 100% 1019.5 hPa - - - -
1787887249 22.78° C 100% 1019.6 hPa - - - -
1787886349 22.78° C 100% 1019.6 hPa - - - -
1787885448 22.78° C 100% 1019.7 hPa - - - -
1787884547 22.78° C 100% 1019.9 hPa - - - -
1787883647 22.78° C 100% 1019.9 hPa - - - -

* Rain since midnight (hover to see other rain measurements)
** Current wind speed in m/s (hover to see current wind gust speed)